Flag for Poland Weather past 2 weeks in Katowice, Poland

Now
30 °F

Chilly.


Feels Like: 30 °F
Forecast: 38 / 49 °F
Wind: 2 mph from Southeast

Location: Katowice Airport

Current Time: Mar 29, 2015 at 5:23:05 AM

Latest Report: Mar 29, 2015 at 5:00 AM


Visibility: 1 mi

Pressure: 29.89 "Hg

Humidity: 93%

Dew point: 28 °F

Location of KatowiceLocation

Historic Weather in Katowice — Graph

°F

Katowice temperature yesterday

Maximum temperature yesterday: 46 °F (at 1:00 PM)
Minimum temperature yesterday: 36 °F (at 6:00 AM)
Average temperature yesterday: 41 °F

Past Weeks' High & Low Weather Summary

 TemperatureHumidityPressure
High66 °F (Mar 25, 2:00 PM)100% (Mar 14, 4:00 AM)30.57 "Hg (Mar 14, 4:00 AM)
Low19 °F (Mar 23, 5:00 AM)25% (Mar 23, 1:30 PM)29.71 "Hg (Mar 27, 4:00 AM)
Average42 °F69%30.14 "Hg
* Reported Mar 14 3:00 AM — Mar 29 4:00 AM, Katowice, Weather by CustomWeather, © 2015

Note: Actual official high and low records may vary slightly from our data, if they occured in-between our weather recording intervals... More about our weather records

Advertising

Katowice weather history for previous 24 hours

 ConditionsComfort  
Time TempWeatherWind HumidityBarometerVisibility
4:00 AM
Sun, Mar 29
34 °FChilly.5 mph100%29.89 "Hg1 mi
3:30 AM34 °FChilly.3 mph100%29.92 "Hg1 mi
3:00 AM36 °FChilly.3 mph93%29.92 "Hg1 mi
1:30 AM36 °FFog.3 mph93%29.92 "Hg1 mi
1:00 AM36 °FFog.5 mph93%29.95 "Hg2 mi
12:30 AM37 °FFog.5 mph93%29.95 "Hg3 mi
12:00 AM39 °FClear.3 mph87%29.95 "Hg5 mi
11:30 PM
Sat, Mar 28
39 °FClear.1 mph87%29.95 "Hg10 mi
11:00 PM39 °FClear.3 mph87%29.95 "Hg10 mi
10:30 PM39 °FClear.2 mph87%29.98 "Hg10 mi
10:00 PM39 °FClear.5 mph87%29.98 "Hg10 mi
9:30 PM39 °FClear.5 mph81%29.98 "Hg10 mi
9:00 PM41 °FPassing clouds.5 mph81%30.01 "HgN/A
8:30 PM41 °FPassing clouds.6 mph76%30.01 "HgN/A
8:00 PM41 °FPassing clouds.5 mph76%30.01 "HgN/A
7:30 PM41 °FPassing clouds.6 mph81%30.01 "HgN/A
7:00 PM43 °FClear.6 mph76%30.01 "Hg10 mi
6:30 PM43 °FClear.3 mph76%30.01 "Hg10 mi
6:00 PM43 °FScattered clouds.3 mph76%30.01 "HgN/A
5:30 PM43 °FScattered clouds.5 mph76%30.01 "HgN/A
5:00 PM45 °FSunny.9 mph66%30.01 "Hg10 mi
4:30 PM45 °FSunny.8 mph71%30.01 "Hg10 mi
4:00 PM45 °FPassing clouds.10 mph66%30.01 "HgN/A
3:30 PM45 °FPassing clouds.10 mph71%30.01 "HgN/A
3:00 PM45 °FPassing clouds.12 mph71%30.01 "HgN/A
2:30 PM46 °FScattered clouds.10 mph66%30.01 "HgN/A
2:00 PM46 °FScattered clouds.12 mph62%30.01 "HgN/A
1:30 PM45 °FScattered clouds.14 mph66%30.01 "HgN/A
1:00 PM46 °FScattered clouds.9 mph71%30.01 "HgN/A
12:30 PM45 °FScattered clouds.13 mph71%30.04 "HgN/A
12:00 PM45 °FBroken clouds.10 mph81%30.04 "HgN/A
11:30 AM45 °FBroken clouds.12 mph71%30.04 "HgN/A
11:00 AM45 °FScattered clouds.12 mph76%30.04 "HgN/A
10:30 AM43 °FScattered clouds.10 mph81%30.04 "Hg4 mi
10:00 AM41 °FBroken clouds.8 mph87%30.04 "Hg4 mi
9:30 AM41 °FBroken clouds.9 mph87%30.04 "Hg4 mi
9:00 AM41 °FBroken clouds.9 mph87%30.04 "Hg4 mi
8:30 AM41 °FBroken clouds.8 mph87%30.04 "Hg4 mi
8:00 AM39 °FPartly sunny.9 mph93%30.04 "Hg4 mi
7:30 AM39 °FFog.9 mph93%30.04 "Hg2 mi
7:00 AM37 °FFog.6 mph93%30.04 "Hg2 mi
6:30 AM36 °FFog.6 mph100%30.04 "Hg2 mi
6:00 AM36 °FFog.6 mph93%30.04 "Hg2 mi
5:30 AM37 °FPartly sunny.7 mph93%30.04 "Hg4 mi
5:00 AM37 °FPassing clouds.8 mph93%30.04 "Hg5 mi
Weather by CustomWeather, © 2015

See weather overviewHow to use our weather pages